{"data":{"norad_id":67267,"epoch":"2026-05-25T03:54:05.768928Z","epoch_age_seconds":71263,"freshness":"FRESH","line1":"1 67267U 25313V   26145.16256677  .00010741  00000+0  45179-3 0  9991","line2":"2 67267  97.3941 220.2638 0015352  92.2685 268.0310 15.23463686 22451","mean_motion":15.23463686,"eccentricity":0.0015352,"inclination_deg":97.3941,"raan_deg":220.2638,"arg_perigee_deg":92.2685,"mean_anomaly_deg":268.031,"bstar":0.00045179,"rev_number":2245,"period_min":94.521452216617,"perigee_km":484.85030757826,"apogee_km":505.95482346023,"semimajor_km":6873.5395655192,"source":"CELESTRAK","updated_at":"2026-05-25T13:38:06.849257Z"}}